Capitol Logistics 412




KIAD
Washington Dulles International Airport
Dulles, Virginia
KMIA
Miami International Airport
Miami, Florida

Activity Log

Date Flight Route Aircraft Duration
11/19/2021 CPX412 JDUBB2 GSO J75 CAE J51 SAV J103 OMN HILEY7 B738 1h 24m
09/30/2021 CPX412 JDUBB2 GSO J75 CAE J51 SAV J103 OMN HILEY7 B738 3h 12m
08/18/2021 CPX412 JDUBB2 GSO J75 CAE J51 SAV J103 OMN HILEY7 B738 2h 23m
08/08/2021 CPX412 JDUBB2 GSO J75 CAE J51 SAV J103 OMN HILEY7 B738 2h 25m
05/13/2020 CPX202 KIAD/19C JDUBB3 MELTN GARIC Y307 JRDAN Y291 JENKS AR22 JORAY HILEY7 KMIA/I09 B763 2h 27m
04/16/2020 CPX202 JDUBB3 MELTN GARIC Y307 JRDAN Y291 JENKS AR22 JORAY HILEY7 B763 2h 27m
03/26/2020 CPX202 JCOBY3 COLIN J61 HUBBS KEMPR WETRO DIW AR22 JORAY HILEY7 B763 2h 31m
03/04/2020 CPX202 JDUBB2 SBV RAYVO Q87 TAALN Q83 JEVED Q97 WOPNR Q93 KENLL OMN HILEY7 B763 2h 31m
12/30/2019 CPX202 JDUBB2 GSO J75 CAE J51 SAV J103 OMN HILEY7 B763 2h 37m
11/06/2019 CPX202 JDUBB2 SBV RAYVO Q87 TAALN Q83 JEVED Q97 WOPNR Q93 KENLL OMN HILEY7 B763 2h 29m
10/30/2019 CPX412 JDUBB2 GSO J75 CAE J51 SAV J103 OMN HILEY7 B752 2h 37m
08/11/2019 CPX412 JDUBB2 GSO SAV J103 OMN J79 TRV ANNEY4 B752 2h 10m
06/22/2019 CPX202 JDUBB2 GSO J75 CAE J51 SAV J103 OMN HILEY7 B763 2h 20m
03/02/2019 CPX202 JCOBY3 COLIN J61 HUBBS KEMPR WETRO DIW AR22 JORAY HILEY7 B763 2h 23m
01/31/2019 CPX412 JCOBY3 COLIN J61 HUBBS KEMPR WETRO DIW AR22 JORAY HILEY7 B752 2h 45m
01/14/2019 CPX202 JDUBB2 GSO J75 CAE J51 SAV J103 OMN HILEY7 B763 2h 35m
12/14/2018 CPX312 JCOBY3 COLIN J61 HUBBS KEMPR WETRO DIW AR22 JORAY HILEY7 B752 2h 29m
12/12/2018 CPX122 JCOBY3 COLIN J61 HUBBS KEMPR WETRO DIW AR22 JORAY HILEY7 B763 2h 22m
12/07/2018 CPX312 JCOBY3 COLIN J61 HUBBS KEMPR WETRO DIW AR22 JORAY HILEY7 B752 2h 33m
12/06/2018 CPX112 JDUBB2 GSO J75 CAE J51 SAV J103 OMN HILEY7 MD11 2h 20m
11/29/2018 CPX312 JCOBY3 COLIN J61 HUBBS KEMPR WETRO DIW AR22 JORAY HILEY7 B752 2h 08m
11/28/2018 CPX122 JDUBB2 GSO J75 CAE J51 SAV J103 OMN HILEY7 B763 2h 29m
11/12/2018 CPX122 JDUBB2 GSO J75 CAE J51 SAV J103 OMN HILEY7 B763 2h 41m

Route Details

Aircraft Information
Group: Narrowbodies
Types: B738,B752
Route Data
Demand: V
Distance: 803nm
Duration: 2h 04m
Recm'd Route: JDUBB2 GSO J75 CAE J51 SAV J103 OMN HILEY7
Origin Wx: KIAD 270459Z 15008KT 10SM FEW009 OVC021 20/18 A3003 RMK AO2 T02000183
Dest. Wx: KMIA 270453Z 10009KT 10SM FEW023 FEW070 27/22 A3006 RMK AO2 SLP179 OCNL LTGIC DSNT E CB DSNT E MOV NW T02670222 403110261 $
Notes:

Financial History
Total Freight: 1,719,768lbs
Average Load: 74,773lbs/flt
Fuel Used: 536,545lbs
Avg. Fuel Used: 23,328lbs/flt
Fuel Expense: $634,165
Avg. Fuel Expense: $27,572
Avg. Fuel Cost: $1.14/lbs
Total Gross Income: $2,283,524
Pilot Pay: $3,897
Total Expenses: $274,197
Total Revenue: $1,364,321
Average Revenue: $99,283.64